Location: Hodgeman County Ambulance
(38.0844°N, 99.8949°W)
Time: 03:01:33
(UTC+00:00)

Envisat - Pass Details

Date: 25 September 2021
Orbit: 764 x 766 km, 98.2° (Epoch: 15 October)

Event Time Altitude Azimuth Distance (km) Brightness Sun altitude
Rises 10:40:32 0° 31° (NNE) 3,236 7.0 -22.1°
Reaches altitude 10° 10:43:33 10° 49° (NE) 2,304 6.4 -21.6°
Maximum altitude 10:47:01 18° 93° (E) 1,790 5.8 -20.9°
Drops below altitude 10° 10:50:28 10° 136° (SE) 2,293 5.8 -20.2°
Sets 10:53:27 0° 155° (SSE) 3,214 6.4 -19.7°
